Regional Weather Roundup
Issued by NWS Midland/Odessa, TX

Home | Current Version | Previous Version | Text Only | Print | Product List | Glossary On
Versions: 1 2 3 4 5 6 7 8 9 10 11 12 13 14 15 16 17 18 19 20 21 22 23 24 25 26 27 28 29 30 31 32 33 34 35 36 37 38 39 40 41 42 43 44 45 46 47 48 49 50
000
ASUS44 KMAF 012301
RWRMAF
MIDLAND AREA WEATHER ROUNDUP
NATIONAL WEATHER SERVICE MIDLAND TX
500 PM CST SUN FEB 01 2015

...IN SOUTHWEST TEXAS AND SOUTHEAST NEW MEXICO...

CITY           SKY/WX    TMP DP  RH WIND       PRES   REMARKS
ALPINE         CLOUDY    50  40  70 N16G22    30.18R
ANDREWS        PTSUNNY   49  35  56 NE10      30.15R
ARTESIA        CLOUDY    50  36  57 CALM      30.16R
BIG SPRING     SUNNY     54  37  52 N12       30.17R
CARLSBAD       CLOUDY    52  36  54 CALM      30.14R
DRYDEN           N/A     61  46  57 N21G26    30.04R
FORT STOCKTON  CLOUDY    51  42  71 NE9       30.14R
GUAD PASS      CLOUDY    42  36  79 E28       30.11S WCI  32
HOBBS          CLOUDY    48  34  57 N10       30.16R
MARFA          SUNNY     50  39  66 NE22      30.13R
MIDLAND AIRPK  CLOUDY    51  37  59 NE5       30.15R
MIDLAND INTL   CLOUDY    51  37  58 NE10      30.15R
ODESSA         PTSUNNY   50  36  58 NE9       30.16R
PECOS          CLOUDY    53  41  63 NE14      30.14S
PRESIDIO       NOT AVBL
SEMINOLE       PTSUNNY   47  34  59 NE10      30.17R
SNYDER         CLOUDY   N/A N/A N/A N13G20    30.16R
WINK           CLOUDY    52  35  52 NE8       30.14R
$$
...OTHER STATIONS IN TEXAS...

CITY           SKY/WX    TMP DP  RH WIND       PRES   REMARKS
ABILENE        MOSUNNY   45  30  55 N17       30.18R WCI  38
AMARILLO       SUNNY     38  21  50 N20G29    30.17R WCI  28
AUSTIN         PTSUNNY   63  49  60 N22       30.01R
BROWNSVILLE    CLOUDY    74  61  63 S6        29.90R
CORPUS CHRISTI PTSUNNY   74  63  68 SE13      29.89R
DALLAS FTW     MOSUNNY   49  32  52 NW23      30.11R
DEL RIO        MOSUNNY   70  49  47 N17G26    29.97R
EL PASO        MOSUNNY   60  39  45 W5        30.06S
HOUSTON INT    LGT RAIN  70  62  76 W5        29.90R
LUBBOCK        MOSUNNY   45  27  49 NE16      30.15R WCI  38
SAN ANGELO     PTSUNNY   53  40  61 NE17      30.13R
SAN ANTONIO    PTSUNNY   67  50  54 N14G28    29.98R
WACO           SUNNY     56  38  50 N16G24    30.07R
WICHITA FALLS  NOT AVBL
$$
...OTHER LOCATIONS IN NEW MEXICO...

CITY           SKY/WX    TMP DP  RH WIND       PRES   REMARKS
ALAMAGORDO     MOSUNNY   57  36  44 S8        30.08S
ALBUQUERQUE    MOSUNNY   50  30  46 NW7       30.11R
CANNON AFB     NOT AVBL
CLOVIS         SUNNY     43  25  49 NE13      30.14R WCI  36
HOLLOMAN AFB   MOSUNNY   58  38  47 S5        30.06S
ROSWELL        CLOUDY    50  33  52 E3        30.14R
RUIDOSO        PTSUNNY   36  32  87 SE12      30.13S WCI  27
SANTA FE       SUNNY     43  25  49 N3        30.08S
TRUTH OR CONSE SUNNY     54  34  46 SE5       30.06S
TUCUMCARI      CLOUDY    43  26  51 E9        30.13R WCI  38
$$



USA.gov is the U.S. government's official web portal to all federal, state and local government web resources and services.